Location: Newark
(50.0306°N, 2.3272°E)
Time: 19:49:47
(UTC+00:00)

Vanguard 1 Rocket - Pass Details

Date: 12 December 2019
Orbit: 650 x 4226 km, 34.3° (Epoch: 26 January)

Event Time Altitude Azimuth Distance (km) Brightness Sun altitude
Rises 18:47:48 0° 213° (SSW) 8,307 12.8 -27.5°
Reaches altitude 10° 18:55:22 10° 204° (SSW) 6,940 12.1 -28.7°
Maximum altitude 19:11:02 27° 157° (SSE) 4,442 10.6 -31.2°
Enters shadow 19:14:10 25° 141° (SE) 4,228 10.4 -31.7°
Drops below altitude 10° 19:21:21 10° 107° (ESE) 4,519 - -32.9°
Sets 19:24:53 0° 95° (E) 5,063 - -33.5°
